Showing default

KUIPER-00058, 64518

Orbit data source: Space-Track

KUIPER-00058, 64518 is a payload satellite owned by Kuiper Systems (US) in LEO that was launched on Mon, 23 Jun 2025 UTC via an ATLAS V 551 launch vehicle from the Air Force Eastern Test Range (AFETR). Payload-class satellites include a variety of spacecraft equipped with specific instruments for various scientific and technological missions. These include communications satellites like Starlink; space stations such as the ISS; scientific satellites like the Hubble; Earth observation satellites from companies like Planet Labs, Umbra, and HawkEye 360; GPS; miniature CubeSats for education and research; and military/defense satellites.

Loading next visibility...
Identifier
64518, 2025-134U
Orbit
LEO
Country
Flag of USUS
Related business
Manufacturer
Kuiper Systems
Mission
Operational Commercial Communications
Bus & Motor
KUIPER, Unknown motor
Mass
~490 kg wet, ~490 kg dry
Launch date (UTC)
2025-06-23 (1 year ago)
Launch vehicle
ATLAS V 551
Launch site
Air Force Eastern Test Range (AFETR)
Object type
Payload
Rocket body
Debris
Shape & HBR
Box + 2 Pan, 3.4 m
Radar Cross Section
2.326 m², Large (>1 m²)

Expand to show TLE details & history
Last TLE update: 14 hours ago

TLE from 14 hours ago
0 KUIPER-00058
1 64518U 25134U   26171.28372110  .00002310  00000-0  33187-3 0  9991
2 64518  51.8995 131.8707 0000724  70.5545 289.5496 14.79936728 55378
Epoch: 2026-06-20T06:48Z
TLE epoch observation values (Epoch: 2026-06-20T06:48:33.503Z)
Latitude
0.00004°
Longitude
121.23057°
Altitude
630.101 km
Speed
7.545 km/s
True Right ascension
08h 47m 28s
True Declination
0° 00' 00"
Sunlit
Object was in daylight at epoch
Visualization orbit readout
Latitude
Unknown
Longitude
Unknown
Altitude
Unknown
Speed
Unknown
Apparent Right ascension
Unknown
Apparent Declination
Unknown
Sunlit
N/A
Visualization observer readout
Local Sidereal Time
07:15:38
Azimuth
Unknown
Elevation
Unknown
Doppler factor
Unknown
Orbital elements
Apogee altitude
630.482 km
Perigee altitude
629.468 km
Semi-major axis
7,008.112 km
Eccentricity
0.00007
Inclination
51.8995°
RAAN
131.8707°
Arg. of periapsis
70.5545°
True anomaly
289.54178°
Mean anomaly
289.5496°
Eccentric anomaly
289.54569°
Mean motion
3.69949 °/min
Orbital period
97.31 mins
BSTAR
0.00033187
Loading maneuver chart data...
Computing Atmospheric mass density...
Loading historical data...
Loading historical data...
Loading historical data...
Loading historical data...
Loading historical data...
Loading historical data...
Loading historical data...

Documentation

Showing up to 5 results
|